SCP
0 0 1 1 1 1 1 1 2 2 2 1 1 1 1 1 1 1 1 1 1 1 1 1 1 0 0 0 0 0 0 0 0 0 0 0 0 0 0 0 0 0 0
1 1 1 1 2 2 2 3 2 2 1 1 1 1 1 1 1 1 0 0 0 0 0 0 0 0 0 0 0 0 0 0 0 1 0 0 0 0 0 0 0 0 0
1 1 2 3 2 3 2 2 1 1 1 1 1 1 1 1 0 0 0 0 0 0 0 0 0 0 0 0 0 0 0 0 0 0 0 0 0 0 0 0 1 0 0
1 1 2 2 2 1 1 1 1 1 1 0 0 0 0 0 0 0 0 0 0 0 0 0 0 0 0 0 0 0 0 0 0 0 0 0 0 0 0 0 0 1 0
1 1 1 1 1 1 1 1 0 0 0 0 0 0 0 0 0 0 0 0 0 0 0 0 0 0 0 0 0 0 0 0 0 0 0 0 0 0 0 0 0 0 0
1 1 1 1 1 1 0 0 0 0 0 0 0 0 0 0 0 0 0 0 0 0 0 0 0 0 0 0 0 0 0 0 0 0 0 0 0 0 0 0 0 0 0
1 1 0 0 0 0 0 0 0 0 0 0 0 0 0 0 0 0 0 0 0 0 0 0 0 0 0 0 0 0 0 0 0 0 0 0 0 0 0 0 0 0 0
0 0 0 0 0 0 0 0 0 0 0 0 0 0 0 0 0 0 0 0 0 0 0 0 0 0 0 0 0 0 0 0 0 0 0 0 0 0 0 0 0 0 0
0 0 0 0 0 0 0 0 0 0 0 0 0 0 0 0 0 0 0 0 0 0 0 0 0 0 0 0 0 0 0 0 0 0 0 0 0 0 0 0 0 0 -0
0 0 0 0 0 0 0 0 0 0 0 0 0 0 0 0 0 0 0 0 0 0 0 0 0 0 0 0 0 0 0 0 0 0 0 -0 0 0 0 0 0 0 -0
0 0 0 0 0 0 0 0 0 0 0 0 0 0 0 0 0 0 0 0 0 0 0 0 0 0 0 0 0 0 0 0 0 0 0 0 0 0 0 0 0 0 0
0 0 0 0 0 0 0 0 0 0 0 0 0 0 0 0 0 0 0 0 0 0 0 0 0 0 0 0 0 0 0 0 0 0 0 0 0 0 0 0 0 0 0
0 0 0 0 0 0 0 0 0 0 0 0 0 0 0 0 0 0 0 0 0 0 0 0 0 0 -0 0 -0 -0 0 -0 -0 -0 0 0 0 0 0 0 0 0 -0
0 0 0 0 0 0 0 0 0 0 0 0 0 0 0 0 0 0 0 0 0 0 0 0 -0 -0 0 0 -0 -0 -0 -0 -0 -0 0 -0 0 0 0 0 0 -0 -0
0 0 0 0 0 0 0 0 0 0 0 0 0 0 0 0 0 0 0 0 0 0 0 0 0 0 -0 0 -0 0 -0 -0 -0 -0 -0 0 0 0 0 0 0 0 0
0 0 0 0 0 0 0 0 0 0 0 0 0 0 0 0 0 0 0 0 0 0 0 0 0 0 0 0 0 -0 -0 -0 -0 -0 0 0 0 0 0 0 0 -0 0
0 0 0 0 0 0 0 0 0 0 0 0 0 0 0 0 0 0 0 0 0 0 0 0 0 0 0 0 -0 -0 -0 -0 0 -0 0 0 0 0 0 0 0 0 0
0 0 0 0 0 0 0 0 0 0 0 0 0 0 0 0 0 0 0 0 0 0 0 0 0 0 0 0 0 0 0 0 0 0 0 0 0 0 0 0 0 0 0
0 0 0 0 0 0 0 0 0 0 0 0 0 0 0 0 0 0 0 0 0 0 0 0 0 0 0 0 0 0 0 0 0 -0 -0 -0 -0 0 0 0 0 0 0
0 0 0 0 0 0 0 0 0 0 0 0 0 0 0 0 0 0 0 0 0 0 0 0 0 0 0 0 0 0 0 0 0 -0 -0 0 0 0 0 0 0 0 0
0 0 0 0 0 0 0 0 0 0 0 0 0 0 0 0 0 0 0 0 0 0 0 0 0 0 0 0 0 0 0 0 0 0 0 0 0 0 0 0 0 0 0
0 0 0 0 0 0 0 0 0 0 0 0 0 0 0 0 0 0 0 0 0 0 0 0 0 0 0 0 0 0 0 0 0 0 0 0 0 0 0 0 -0 -0 -0
0 0 0 0 0 0 0 0 0 0 0 0 0 0 0 0 0 0 0 0 0 0 0 0 0 0 0 0 0 0 0 0 0 0 0 0 0 -0 0 -0 -0 -0 -0
0 0 0 0 0 0 0 0 0 0 0 0 0 0 0 0 0 0 0 0 0 0 0 0 0 0 0 0 0 0 0 0 0 0 0 0 0 -0 -0 -0 -0 -0 -0
0 0 0 0 0 0 0 0 0 0 0 0 0 0 0 0 0 0 0 0 0 0 0 0 0 0 0 0 0 -0 -0 0 0 0 0 0 -0 0 -0 -0 -0 -0 0
0 0 0 0 0 0 0 0 0 0 0 0 0 0 0 0 0 0 0 0 0 0 0 0 0 0 0 0 0 -0 -0 0 0 0 0 0 0 0 0 0 0 0 0
Wind_Speed_500mb
41 39 40 37 35 34 31 25 31 27 31 35 37 40 35 31 28 30 30 28 30 33 37 35 37 38 39 38 40 42 45 50 63 64 55 53 56 56 55 62 56 56 54
32 37 35 28 24 28 31 32 28 30 31 32 36 31 27 24 20 25 30 29 31 34 36 37 36 35 38 37 41 45 50 51 56 66 59 54 56 50 56 57 52 54 54
28 26 18 19 23 21 21 24 24 26 25 14 13 13 16 21 24 26 27 29 32 33 32 33 35 37 39 42 44 47 47 48 49 56 60 50 47 50 54 54 59 54 52
16 14 14 10 10 9 13 16 17 17 13 16 22 24 21 23 24 22 28 30 32 31 34 36 38 38 40 44 43 43 41 44 49 44 49 49 52 51 45 44 46 44 50
16 15 13 9 7 7 10 11 12 16 21 27 27 21 20 21 26 35 30 29 33 34 38 37 36 39 39 45 47 46 46 45 43 44 53 49 50 50 47 44 46 45 43
21 17 11 7 5 3 6 12 19 26 29 25 20 20 21 23 31 33 37 40 32 36 36 33 32 35 33 43 41 47 48 44 41 44 54 53 53 46 46 44 44 42 46
21 17 13 9 4 6 13 19 22 22 20 17 18 18 22 28 33 37 43 38 31 31 33 33 34 35 44 42 50 52 48 38 40 41 40 38 42 45 45 48 44 44 47
23 19 14 6 5 13 18 20 21 16 16 17 17 18 19 33 40 45 47 31 28 31 30 32 38 43 40 48 54 57 51 37 33 27 37 44 46 53 51 48 53 50 55
22 15 5 4 11 12 15 18 21 18 14 16 20 22 24 28 47 52 52 35 31 34 35 37 44 42 46 48 64 61 51 27 20 30 34 42 47 36 37 37 41 55 77
16 8 4 9 13 16 16 17 16 12 15 16 19 19 27 24 40 43 49 40 44 42 34 39 45 48 53 55 57 50 40 27 35 32 39 37 36 38 38 39 45 70 88
9 2 7 15 18 15 14 13 12 14 16 19 21 22 21 32 37 40 43 44 44 42 41 49 52 50 55 51 42 36 37 40 42 36 33 33 31 35 40 40 48 74 89
9 3 10 11 6 6 10 13 17 18 18 21 23 23 23 27 38 44 41 42 43 41 39 49 53 53 48 41 36 31 31 36 35 32 33 34 41 48 44 47 50 71 94
6 4 5 4 5 9 13 15 14 17 18 19 21 22 24 24 26 43 45 43 45 40 39 47 47 50 46 36 27 28 29 34 37 35 37 39 44 47 52 56 61 82 102
10 7 5 7 8 9 13 14 14 16 16 18 20 22 23 24 29 38 41 43 39 37 41 34 41 42 38 41 26 25 30 35 36 36 43 41 45 46 48 52 68 91 110
10 10 14 14 11 10 7 8 9 14 19 19 21 20 21 23 36 38 38 38 42 46 40 38 46 39 45 45 42 41 43 37 36 38 41 44 45 45 47 55 65 86 98
21 23 19 12 10 7 6 4 9 15 21 25 28 28 19 29 31 31 33 34 36 37 31 40 45 39 41 40 40 43 38 40 40 41 41 42 45 46 50 56 62 75 90
26 20 18 20 7 6 6 4 6 19 30 34 32 31 31 31 33 33 30 33 38 34 33 36 40 41 45 43 38 38 41 42 43 42 42 44 47 47 50 59 78 78 87
24 22 19 22 11 6 5 3 4 9 10 16 27 34 37 29 31 34 31 34 31 33 31 34 38 40 36 38 38 40 42 43 43 44 44 43 46 50 53 57 72 88 83
27 24 18 15 11 10 5 2 4 8 10 13 14 21 33 28 38 40 38 27 30 31 33 34 34 34 36 36 38 38 41 44 46 45 44 45 48 50 55 56 68 77 82
23 28 23 15 9 7 6 3 4 7 10 12 14 16 24 23 19 20 25 26 27 28 30 31 34 36 37 38 39 40 40 43 45 45 46 45 46 50 54 57 59 67 80
20 21 20 13 13 11 9 7 4 3 6 9 12 19 24 22 19 21 21 24 26 27 29 30 32 34 37 38 39 40 40 42 47 48 47 46 47 55 53 52 54 57 67
19 15 13 13 15 13 10 8 6 4 3 4 8 13 20 17 15 17 20 21 24 26 28 31 32 35 38 38 40 39 40 44 47 47 47 44 50 53 52 52 52 53 54
20 18 15 14 14 17 10 9 9 7 5 1 4 7 8 10 12 14 18 20 23 26 28 29 31 35 37 37 38 37 38 46 48 47 45 43 49 53 51 52 50 51 51
17 15 14 12 13 11 12 11 11 15 10 4 5 6 4 6 9 13 16 18 21 24 26 27 32 35 39 38 37 36 37 42 43 46 40 40 43 48 46 48 49 48 47
18 16 14 14 11 12 12 10 11 11 9 9 8 7 3 6 9 12 14 16 19 23 26 28 32 33 39 39 40 37 35 33 35 37 42 41 38 43 42 44 47 44 46
15 15 14 15 15 15 13 14 12 11 10 10 8 6 3 3 6 9 13 16 17 20 25 26 31 34 41 40 41 36 36 33 32 32 42 35 36 37 41 40 44 43 44
Wind_Direction_500mb
234 235 239 242 253 260 260 260 260 259 266 277 284 290 294 295 293 293 302 303 296 301 301 302 298 300 300 297 296 298 295 295 295 298 298 297 294 292 292 295 292 287 285
230 240 246 250 247 252 262 264 275 275 290 299 296 297 299 304 305 306 307 303 302 302 303 302 303 303 299 302 301 295 294 296 296 298 300 301 296 293 295 300 292 291 283
235 246 233 228 256 248 255 270 290 299 304 307 314 323 314 309 305 303 304 304 304 304 304 303 304 303 300 299 295 297 296 294 293 296 301 304 304 302 300 298 296 289 289
210 190 216 210 202 222 261 287 296 304 314 317 314 317 320 314 317 302 315 314 310 306 307 306 306 301 300 298 297 290 293 294 302 303 301 304 308 308 308 312 313 294 290
187 180 183 196 219 267 298 308 314 316 315 320 324 327 325 330 280 307 320 318 310 309 308 304 303 298 326 318 305 300 297 299 304 297 303 306 309 310 308 307 305 308 311
157 162 182 203 228 262 303 313 323 329 331 335 338 334 332 281 312 320 321 322 314 312 309 309 310 318 298 303 298 299 297 298 300 302 309 308 309 312 314 306 310 317 314
169 170 169 173 190 307 326 330 332 336 341 352 342 339 319 307 326 332 333 336 325 318 317 315 313 308 310 299 317 319 320 308 297 311 306 306 312 321 304 305 302 298 298
162 162 163 177 304 326 330 338 347 360 359 352 338 342 349 320 330 338 345 344 333 328 327 326 317 329 329 323 327 324 317 306 303 304 311 311 312 316 311 306 302 305 307
152 152 160 315 318 330 338 346 345 348 359 0 346 347 340 334 332 336 339 349 334 337 334 331 335 331 336 334 333 331 327 309 306 310 318 315 307 310 319 310 317 321 316
154 171 267 317 338 345 345 342 350 12 352 6 358 351 345 343 334 341 339 347 343 344 343 341 341 331 330 336 337 333 340 330 324 323 321 328 330 325 327 303 305 324 328
166 217 339 352 341 339 343 355 9 359 354 355 353 1 348 342 342 352 346 348 351 352 349 349 344 341 336 330 328 335 343 339 337 333 326 333 327 326 322 312 319 323 327
210 334 339 327 321 345 357 352 356 357 353 358 355 5 351 359 341 345 347 348 356 358 351 349 345 338 333 328 326 318 328 339 331 324 330 333 331 329 328 323 319 334 338
150 288 294 324 352 15 5 17 19 4 14 360 354 354 350 351 342 343 351 352 5 2 353 347 347 349 339 326 314 330 336 329 328 335 330 329 326 329 325 329 336 339 345
168 209 179 105 81 41 47 34 19 14 12 0 354 355 353 350 340 355 357 4 359 353 350 350 351 351 351 5 353 354 350 347 343 334 328 327 326 326 328 334 338 356 356
154 135 113 103 95 43 48 45 42 18 20 14 5 3 353 351 356 358 357 357 360 350 349 348 354 352 2 6 7 5 4 356 346 341 336 334 333 332 337 341 349 1 3
149 135 130 99 94 123 91 6 21 20 22 16 10 12 5 0 360 0 357 356 2 356 360 354 3 0 3 4 2 360 355 352 346 345 341 339 336 339 340 347 3 3 4
154 150 142 118 150 131 106 98 333 350 4 2 3 5 3 5 3 3 359 357 2 13 1 358 3 7 9 4 357 357 354 351 350 347 347 343 343 342 345 347 6 4 7
154 155 138 129 155 145 132 79 15 32 16 348 345 353 349 353 359 2 5 20 12 12 7 3 4 4 360 0 359 357 355 353 353 352 350 350 349 349 348 347 347 358 6
171 158 150 143 157 179 165 90 10 16 7 355 4 359 337 16 7 5 19 22 22 11 10 11 7 7 4 2 359 358 357 353 354 354 353 354 354 355 351 350 349 353 4
165 169 160 156 194 178 225 248 320 355 358 355 1 356 356 26 7 12 12 18 28 16 9 7 5 2 2 2 359 0 358 356 357 357 356 356 356 358 353 353 352 354 358
176 172 167 178 202 208 223 249 263 310 344 353 4 354 10 42 10 16 27 17 18 18 8 7 4 0 358 359 1 360 358 356 358 359 359 354 359 356 356 356 356 356 356
183 179 183 190 210 217 222 236 245 253 311 347 12 357 29 29 23 15 19 19 17 15 9 7 5 0 358 358 357 357 356 357 6 4 0 359 2 355 357 358 358 360 0
182 179 201 199 197 212 225 216 215 210 208 16 68 58 37 32 23 16 15 17 14 15 12 8 8 3 360 1 357 358 353 359 7 7 359 11 1 356 1 359 0 1 3
182 191 198 199 201 204 210 198 206 194 176 160 116 94 73 45 28 23 13 10 14 13 10 7 4 3 1 2 358 360 353 2 7 14 16 13 357 357 3 1 4 4 5
188 199 197 205 217 201 207 186 193 185 185 172 153 131 99 45 21 12 13 8 10 11 8 7 2 3 360 359 1 5 4 6 8 15 29 17 357 360 7 5 6 6 9
200 211 208 206 209 205 192 200 197 190 196 172 156 154 148 44 29 16 0 1 11 9 9 5 3 6 359 360 4 9 12 13 15 28 30 8 5 4 12 10 11 13 14
Wind_Speed_850mb
41 39 40 37 35 34 31 25 31 27 31 35 37 40 35 31 28 30 30 28 30 33 37 35 37 38 39 38 40 42 45 50 63 64 55 53 56 56 55 62 56 56 54
32 37 35 28 24 28 31 32 28 30 31 32 36 31 27 24 20 25 30 29 31 34 36 37 36 35 38 37 41 45 50 51 56 66 59 54 56 50 56 57 52 54 54
28 26 18 19 23 21 21 24 24 26 25 14 13 13 16 21 24 26 27 29 32 33 32 33 35 37 39 42 44 47 47 48 49 56 60 50 47 50 54 54 59 54 52
16 14 14 10 10 9 13 16 17 17 13 16 22 24 21 23 24 22 28 30 32 31 34 36 38 38 40 44 43 43 41 44 49 44 49 49 52 51 45 44 46 44 50
16 15 13 9 7 7 10 11 12 16 21 27 27 21 20 21 26 35 30 29 33 34 38 37 36 39 39 45 47 46 46 45 43 44 53 49 50 50 47 44 46 45 43
21 17 11 7 5 3 6 12 19 26 29 25 20 20 21 23 31 33 37 40 32 36 36 33 32 35 33 43 41 47 48 44 41 44 54 53 53 46 46 44 44 42 46
21 17 13 9 4 6 13 19 22 22 20 17 18 18 22 28 33 37 43 38 31 31 33 33 34 35 44 42 50 52 48 38 40 41 40 38 42 45 45 48 44 44 47
23 19 14 6 5 13 18 20 21 16 16 17 17 18 19 33 40 45 47 31 28 31 30 32 38 43 40 48 54 57 51 37 33 27 37 44 46 53 51 48 53 50 55
22 15 5 4 11 12 15 18 21 18 14 16 20 22 24 28 47 52 52 35 31 34 35 37 44 42 46 48 64 61 51 27 20 30 34 42 47 36 37 37 41 55 77
16 8 4 9 13 16 16 17 16 12 15 16 19 19 27 24 40 43 49 40 44 42 34 39 45 48 53 55 57 50 40 27 35 32 39 37 36 38 38 39 45 70 88
9 2 7 15 18 15 14 13 12 14 16 19 21 22 21 32 37 40 43 44 44 42 41 49 52 50 55 51 42 36 37 40 42 36 33 33 31 35 40 40 48 74 89
9 3 10 11 6 6 10 13 17 18 18 21 23 23 23 27 38 44 41 42 43 41 39 49 53 53 48 41 36 31 31 36 35 32 33 34 41 48 44 47 50 71 94
6 4 5 4 5 9 13 15 14 17 18 19 21 22 24 24 26 43 45 43 45 40 39 47 47 50 46 36 27 28 29 34 37 35 37 39 44 47 52 56 61 82 102
10 7 5 7 8 9 13 14 14 16 16 18 20 22 23 24 29 38 41 43 39 37 41 34 41 42 38 41 26 25 30 35 36 36 43 41 45 46 48 52 68 91 110
10 10 14 14 11 10 7 8 9 14 19 19 21 20 21 23 36 38 38 38 42 46 40 38 46 39 45 45 42 41 43 37 36 38 41 44 45 45 47 55 65 86 98
21 23 19 12 10 7 6 4 9 15 21 25 28 28 19 29 31 31 33 34 36 37 31 40 45 39 41 40 40 43 38 40 40 41 41 42 45 46 50 56 62 75 90
26 20 18 20 7 6 6 4 6 19 30 34 32 31 31 31 33 33 30 33 38 34 33 36 40 41 45 43 38 38 41 42 43 42 42 44 47 47 50 59 78 78 87
24 22 19 22 11 6 5 3 4 9 10 16 27 34 37 29 31 34 31 34 31 33 31 34 38 40 36 38 38 40 42 43 43 44 44 43 46 50 53 57 72 88 83
27 24 18 15 11 10 5 2 4 8 10 13 14 21 33 28 38 40 38 27 30 31 33 34 34 34 36 36 38 38 41 44 46 45 44 45 48 50 55 56 68 77 82
23 28 23 15 9 7 6 3 4 7 10 12 14 16 24 23 19 20 25 26 27 28 30 31 34 36 37 38 39 40 40 43 45 45 46 45 46 50 54 57 59 67 80
20 21 20 13 13 11 9 7 4 3 6 9 12 19 24 22 19 21 21 24 26 27 29 30 32 34 37 38 39 40 40 42 47 48 47 46 47 55 53 52 54 57 67
19 15 13 13 15 13 10 8 6 4 3 4 8 13 20 17 15 17 20 21 24 26 28 31 32 35 38 38 40 39 40 44 47 47 47 44 50 53 52 52 52 53 54
20 18 15 14 14 17 10 9 9 7 5 1 4 7 8 10 12 14 18 20 23 26 28 29 31 35 37 37 38 37 38 46 48 47 45 43 49 53 51 52 50 51 51
17 15 14 12 13 11 12 11 11 15 10 4 5 6 4 6 9 13 16 18 21 24 26 27 32 35 39 38 37 36 37 42 43 46 40 40 43 48 46 48 49 48 47
18 16 14 14 11 12 12 10 11 11 9 9 8 7 3 6 9 12 14 16 19 23 26 28 32 33 39 39 40 37 35 33 35 37 42 41 38 43 42 44 47 44 46
15 15 14 15 15 15 13 14 12 11 10 10 8 6 3 3 6 9 13 16 17 20 25 26 31 34 41 40 41 36 36 33 32 32 42 35 36 37 41 40 44 43 44
Wind_Direction_850mb
234 235 239 242 253 260 260 260 260 259 266 277 284 290 294 295 293 293 302 303 296 301 301 302 298 300 300 297 296 298 295 295 295 298 298 297 294 292 292 295 292 287 285
230 240 246 250 247 252 262 264 275 275 290 299 296 297 299 304 305 306 307 303 302 302 303 302 303 303 299 302 301 295 294 296 296 298 300 301 296 293 295 300 292 291 283
235 246 233 228 256 248 255 270 290 299 304 307 314 323 314 309 305 303 304 304 304 304 304 303 304 303 300 299 295 297 296 294 293 296 301 304 304 302 300 298 296 289 289
210 190 216 210 202 222 261 287 296 304 314 317 314 317 320 314 317 302 315 314 310 306 307 306 306 301 300 298 297 290 293 294 302 303 301 304 308 308 308 312 313 294 290
187 180 183 196 219 267 298 308 314 316 315 320 324 327 325 330 280 307 320 318 310 309 308 304 303 298 326 318 305 300 297 299 304 297 303 306 309 310 308 307 305 308 311
157 162 182 203 228 262 303 313 323 329 331 335 338 334 332 281 312 320 321 322 314 312 309 309 310 318 298 303 298 299 297 298 300 302 309 308 309 312 314 306 310 317 314
169 170 169 173 190 307 326 330 332 336 341 352 342 339 319 307 326 332 333 336 325 318 317 315 313 308 310 299 317 319 320 308 297 311 306 306 312 321 304 305 302 298 298
162 162 163 177 304 326 330 338 347 360 359 352 338 342 349 320 330 338 345 344 333 328 327 326 317 329 329 323 327 324 317 306 303 304 311 311 312 316 311 306 302 305 307
152 152 160 315 318 330 338 346 345 348 359 0 346 347 340 334 332 336 339 349 334 337 334 331 335 331 336 334 333 331 327 309 306 310 318 315 307 310 319 310 317 321 316
154 171 267 317 338 345 345 342 350 12 352 6 358 351 345 343 334 341 339 347 343 344 343 341 341 331 330 336 337 333 340 330 324 323 321 328 330 325 327 303 305 324 328
166 217 339 352 341 339 343 355 9 359 354 355 353 1 348 342 342 352 346 348 351 352 349 349 344 341 336 330 328 335 343 339 337 333 326 333 327 326 322 312 319 323 327
210 334 339 327 321 345 357 352 356 357 353 358 355 5 351 359 341 345 347 348 356 358 351 349 345 338 333 328 326 318 328 339 331 324 330 333 331 329 328 323 319 334 338
150 288 294 324 352 15 5 17 19 4 14 360 354 354 350 351 342 343 351 352 5 2 353 347 347 349 339 326 314 330 336 329 328 335 330 329 326 329 325 329 336 339 345
168 209 179 105 81 41 47 34 19 14 12 0 354 355 353 350 340 355 357 4 359 353 350 350 351 351 351 5 353 354 350 347 343 334 328 327 326 326 328 334 338 356 356
154 135 113 103 95 43 48 45 42 18 20 14 5 3 353 351 356 358 357 357 360 350 349 348 354 352 2 6 7 5 4 356 346 341 336 334 333 332 337 341 349 1 3
149 135 130 99 94 123 91 6 21 20 22 16 10 12 5 0 360 0 357 356 2 356 360 354 3 0 3 4 2 360 355 352 346 345 341 339 336 339 340 347 3 3 4
154 150 142 118 150 131 106 98 333 350 4 2 3 5 3 5 3 3 359 357 2 13 1 358 3 7 9 4 357 357 354 351 350 347 347 343 343 342 345 347 6 4 7
154 155 138 129 155 145 132 79 15 32 16 348 345 353 349 353 359 2 5 20 12 12 7 3 4 4 360 0 359 357 355 353 353 352 350 350 349 349 348 347 347 358 6
171 158 150 143 157 179 165 90 10 16 7 355 4 359 337 16 7 5 19 22 22 11 10 11 7 7 4 2 359 358 357 353 354 354 353 354 354 355 351 350 349 353 4
165 169 160 156 194 178 225 248 320 355 358 355 1 356 356 26 7 12 12 18 28 16 9 7 5 2 2 2 359 0 358 356 357 357 356 356 356 358 353 353 352 354 358
176 172 167 178 202 208 223 249 263 310 344 353 4 354 10 42 10 16 27 17 18 18 8 7 4 0 358 359 1 360 358 356 358 359 359 354 359 356 356 356 356 356 356
183 179 183 190 210 217 222 236 245 253 311 347 12 357 29 29 23 15 19 19 17 15 9 7 5 0 358 358 357 357 356 357 6 4 0 359 2 355 357 358 358 360 0
182 179 201 199 197 212 225 216 215 210 208 16 68 58 37 32 23 16 15 17 14 15 12 8 8 3 360 1 357 358 353 359 7 7 359 11 1 356 1 359 0 1 3
182 191 198 199 201 204 210 198 206 194 176 160 116 94 73 45 28 23 13 10 14 13 10 7 4 3 1 2 358 360 353 2 7 14 16 13 357 357 3 1 4 4 5
188 199 197 205 217 201 207 186 193 185 185 172 153 131 99 45 21 12 13 8 10 11 8 7 2 3 360 359 1 5 4 6 8 15 29 17 357 360 7 5 6 6 9
200 211 208 206 209 205 192 200 197 190 196 172 156 154 148 44 29 16 0 1 11 9 9 5 3 6 359 360 4 9 12 13 15 28 30 8 5 4 12 10 11 13 14